Regional Weather Roundup
Issued by NWS Kansas City/Pleasant Hill, MO

Home | Current Version | Previous Version | Text Only | Print | Product List | Glossary On
Versions: 1 2 3 4 5 6 7 8 9 10 11 12 13 14 15 16 17 18 19 20 21 22 23 24 25 26 27
000
ASUS43 KEAX 250810
RWREAX

WEATHER ROUNDUP FOR EASTERN KANSAS AND NORTHWEST MISSOURI
NATIONAL WEATHER SERVICE KANSAS CITY/PLEASANT HILL MO
300 AM CDT MON JUL 25 2016

KSZ040-057-103>105-MOZ028-029-037-043-250900-
...KANSAS CITY METROPOLITAN AREA...

CITY           SKY/WX    TMP DP  RH WIND       PRES   REMARKS
K.C. INTL      CLOUDY    74  69  85 N8        30.01R
K.C. DOWNTOWN  CLOUDY    77  72  84 NE12      29.99R THUNDER
LEES SUMMIT    CLOUDY    76  70  82 NW14      30.02R THUNDER
OLATHE - IXD   CLOUDY    77  71  82 NW10      30.02R
OLATHE - OJC   CLOUDY    78  70  76 NW6       30.01R
LAWRENCE       CLOUDY    75  72  90 N7        30.01R

$$

MOZ001>008-011>017-020>025-030>033-038>040-044>046-053-054-250900-
...NORTHERN AND CENTRAL MISSOURI...

CITY           SKY/WX    TMP DP  RH WIND       PRES   REMARKS
ST. JOSEPH     CLOUDY    70  68  93 NE7       30.02R
MOSBY          CLOUDY    75  70  83 N6        29.99S
WHITEMAN AFB   MOCLDY    72  72 100 E9        29.96F
CLINTON        CLOUDY    73  72  94 CALM      29.97F
SEDALIA        CLOUDY    73  70  90 NE5       29.99F THUNDER
WARSAW         NOT AVBL
CHILLICOTHE      N/A     75  69  81 N5        30.04R
KIRKSVILLE     CLOUDY    74  67  78 NE9       30.03S

$$

MOZ041-047>049-056>058-063>065-088>090-097-250900-
...EASTERN AND SOUTHERN MISSOURI...

CITY           SKY/WX    TMP DP  RH WIND       PRES   REMARKS
ST. LOUIS INTL CLOUDY    78  69  73 S23       29.97S THUNDER
SPIRIT OF STL  TSTM      75  72  90 W13G29    30.01R FOG
COLUMBIA       LGT RAIN  72  71  97 NE3       30.00F
JEFFERSON CITY LGT RAIN  74  71  91 VRB3      29.98S
ROLLA          LGT RAIN  73  69  87 E6        30.00S
OSAGE BEACH    CLOUDY    75  72  88 NE6       29.99S
SPRINGFIELD    MOCLDY    81  74  79 CALM      29.98S
BRANSON        PTCLDY    75  70  83 CALM      30.00S
JOPLIN         PTCLDY    81  72  74 S7        29.96R
WEST PLAINS    CLEAR     78  73  84 CALM      30.02S

$$

IAZ060-094-KSZ022-034>040-054-083-096-NEZ052-066-093-250900-
...KANSAS...SOUTHEAST NEBRASKA AND IOWA...

CITY           SKY/WX    TMP DP  RH WIND       PRES   REMARKS
TOPEKA         CLOUDY    75  68  78 CALM      30.00S
MANHATTAN      CLOUDY    73  68  84 NE7       29.99R
EMPORIA        MOCLDY    76  65  68 NE7       29.99R
CHANUTE        PTCLDY    78  70  76 N10G23    29.98R
WICHITA        CLOUDY    86  71  60 S9        29.96R HX  91
OMAHA          MOCLDY    69  64  84 N9        30.04F
LINCOLN        PTCLDY    66  64  93 N6        30.06F
FALLS CITY     CLEAR     69  66  90 N5        30.02S
LAMONI         PTCLDY    70  66  87 NE5       30.04S
DES MOINES     PTCLDY    72  65  78 N7        30.03F

$$





USA.gov is the U.S. government's official web portal to all federal, state and local government web resources and services.